Location: Newark
(19.4083°N, 89.7712°W)
Time: 13:17:50
(UTC+00:00)

N. Korean satellite - Visible Passes

Search period start: 18 August 2019 00:00
Search period end: 28 August 2019 00:00
Orbit: 457 x 507 km, 97.2° (Epoch: 16 August)

Date Brightness Start Highest point End Pass type
(mag) Time Alt. Az. Time Alt. Az. Time Alt. Az.
18 Aug 9.1 11:14:54 10° NE 11:17:55 25° E 11:20:53 10° SSE visible
19 Aug 10.1 10:51:59 10° E 10:52:42 10° E 10:53:25 10° ESE visible
22 Aug 9.5 11:08:01 10° NE 11:10:39 20° E 11:13:16 10° SSE visible
26 Aug 9.6 11:01:14 10° ENE 11:03:21 15° E 11:05:27 10° SE visible
